Location: Losili
(4.4086°N, 32.7049°E)
Time: 11:00:31
(UTC+00:00)

COSMOS 2455 - Pass Details

Date: 18 September 2019
Orbit: 900 x 910 km, 67.1° (Epoch: 13 October)

Event Time Altitude Azimuth Distance (km) Brightness Sun altitude
Rises 16:42:54 0° 10° (N) 3,518 5.9 -14.7°
Reaches altitude 10° 16:46:22 10° 30° (NNE) 2,577 5.0 -15.6°
Enters shadow 16:48:56 16° 55° (NE) 2,170 4.4 -16.2°
